| time (UTC) | temp F | wind direction | speed MPH | gust MPH | rain 1hr in | rain 24hr in | rain mn in | humidity % | barometer mb |
| 20260902101507 | 51 | 191 | 0.0 | 1.0 | 0.00 | 0.14 | 0.00 | 90 | 1007.5 |
| 20260902100006 | 51 | 224 | 2.0 | 6.0 | 0.00 | 0.14 | 0.00 | 90 | 1007.6 |
| 20260902094504 | 51 | 158 | 0.0 | 2.0 | 0.00 | 0.14 | 0.00 | 90 | 1007.2 |
| 20260902093001 | 52 | 154 | 0.0 | 2.0 | 0.00 | 0.14 | 0.00 | 90 | 1007.3 |
| 20260902091600 | 52 | 218 | 0.0 | 3.0 | 0.00 | 0.14 | 0.00 | 90 | 1007.5 |
| 20260902090107 | 52 | 110 | 0.0 | 4.0 | 0.00 | 0.14 | 0.00 | 90 | 1007.4 |
| 20260902084600 | 53 | 220 | 0.0 | 4.0 | 0.00 | 0.14 | 0.00 | 90 | 1008.1 |
| 20260902083055 | 54 | 216 | 0.0 | 4.0 | 0.00 | 0.14 | 0.00 | 90 | 1007.9 |
| 20260902081555 | 54 | 219 | 1.0 | 4.0 | 0.00 | 0.14 | 0.00 | 90 | 1008.0 |
| 20260902080104 | 53 | 56 | 4.0 | 12.0 | 0.00 | 0.14 | 0.00 | 90 | 1007.9 |
| 20260902074548 | 52 | 158 | 0.0 | 3.0 | 0.00 | 0.14 | 0.00 | 90 | 1008.1 |
| 20260902073048 | 52 | 155 | 0.0 | 2.0 | 0.00 | 0.14 | 0.00 | 90 | 1008.4 |
| 20260902071544 | 52 | 165 | 0.0 | 3.0 | 0.00 | 0.14 | 0.00 | 89 | 1008.5 |
| 20260902070044 | 52 | 201 | 0.0 | 2.0 | 0.00 | 0.14 | 0.00 | 90 | 1008.3 |
| 20260902064547 | 52 | 158 | 0.0 | 3.0 | 0.00 | 0.14 | 0.14 | 90 | 1008.2 |
| 20260902063039 | 53 | 170 | 1.0 | 5.0 | 0.00 | 0.14 | 0.14 | 90 | 1008.1 |
| 20260902061546 | 53 | 224 | 1.0 | 3.0 | 0.00 | 0.14 | 0.14 | 90 | 1008.1 |
| 20260902060043 | 53 | 216 | 2.0 | 4.0 | 0.00 | 0.14 | 0.14 | 90 | 1008.0 |
| 20260902054538 | 53 | 153 | 0.0 | 4.0 | 0.00 | 0.14 | 0.14 | 90 | 1008.0 |
| 20260902053039 | 54 | 191 | 1.0 | 3.0 | 0.00 | 0.14 | 0.14 | 89 | 1008.1 |
| 20260902051537 | 54 | 211 | 0.0 | 3.0 | 0.00 | 0.14 | 0.14 | 90 | 1008.2 |
| 20260902050039 | 55 | 212 | 0.0 | 1.0 | 0.00 | 0.14 | 0.14 | 89 | 1008.0 |
| 20260902044536 | 55 | 212 | 0.0 | 1.0 | 0.00 | 0.14 | 0.14 | 89 | 1008.0 |
| 20260902043035 | 56 | 211 | 0.0 | 2.0 | 0.00 | 0.14 | 0.14 | 89 | 1008.0 |
| 20260902041535 | 56 | 212 | 0.0 | 2.0 | 0.00 | 0.14 | 0.14 | 89 | 1007.9 |
| 20260902040034 | 57 | 212 | 1.0 | 3.0 | 0.01 | 0.14 | 0.14 | 89 | 1007.8 |
| 20260902034534 | 57 | 204 | 0.0 | 2.0 | 0.01 | 0.14 | 0.14 | 89 | 1007.6 |
| 20260902033040 | 58 | 110 | 0.0 | 2.0 | 0.11 | 0.14 | 0.14 | 89 | 1007.5 |
| 20260902031534 | 58 | 81 | 0.0 | 3.0 | 0.12 | 0.14 | 0.14 | 88 | 1007.3 |
| 20260902030032 | 59 | 102 | 0.0 | 3.0 | 0.13 | 0.13 | 0.13 | 87 | 1007.2 |
| 20260902024532 | 60 | 97 | 0.0 | 4.0 | 0.13 | 0.13 | 0.13 | 82 | 1007.0 |
| 20260902023030 | 62 | 174 | 0.0 | 4.0 | 0.03 | 0.03 | 0.03 | 78 | 1007.0 |
| 20260902021535 | 63 | 164 | 0.0 | 2.0 | 0.02 | 0.02 | 0.02 | 77 | 1006.5 |
| 20260902020028 | 65 | 147 | 0.0 | 5.0 | 0.00 | 0.00 | 0.00 | 70 | 1006.2 |
| 20260902014536 | 66 | 125 | 0.0 | 3.0 | 0.00 | 0.00 | 0.00 | 69 | 1006.1 |
| 20260902013026 | 68 | 208 | 1.0 | 9.0 | 0.00 | 0.00 | 0.00 | 63 | 1005.9 |
| 20260902011534 | 70 | 153 | 5.0 | 11.0 | 0.00 | 0.00 | 0.00 | 53 | 1005.4 |
| 20260902010041 | 71 | 201 | 0.0 | 4.0 | 0.00 | 0.00 | 0.00 | 49 | 1005.1 |
| 20260902004532 | 73 | 238 | 0.0 | 7.0 | 0.00 | 0.00 | 0.00 | 46 | 1004.8 |
| 20260902003024 | 75 | 217 | 2.0 | 7.0 | 0.00 | 0.00 | 0.00 | 44 | 1004.7 |
| 20260902001525 | 78 | 191 | 4.0 | 8.0 | 0.00 | 0.00 | 0.00 | 39 | 1004.4 |
| 20260902000032 | 79 | 218 | 3.0 | 8.0 | 0.00 | 0.00 | 0.00 | 37 | 1004.2 |
| 20260901234543 | 81 | 187 | 0.0 | 5.0 | 0.00 | 0.00 | 0.00 | 34 | 1004.2 |
| 20260901233017 | 80 | 230 | 2.0 | 6.0 | 0.00 | 0.00 | 0.00 | 35 | 1004.2 |
| 20260901231519 | 81 | 318 | 3.0 | 8.0 | 0.00 | 0.00 | 0.00 | 35 | 1004.1 |
| 20260901230015 | 80 | 217 | 4.0 | 9.0 | 0.00 | 0.00 | 0.00 | 37 | 1004.3 |
| 20260901224514 | 80 | 320 | 1.0 | 7.0 | 0.00 | 0.00 | 0.00 | 35 | 1004.2 |
| 20260901223016 | 82 | 45 | 0.0 | 6.0 | 0.00 | 0.00 | 0.00 | 37 | 1004.3 |
| 20260901221519 | 79 | 127 | 1.0 | 6.0 | 0.00 | 0.00 | 0.00 | 43 | 1004.4 |
| 20260901220007 | 78 | 59 | 0.0 | 6.0 | 0.00 | 0.00 | 0.00 | 43 | 1004.5 |
| 20260901214509 | 77 | 288 | 1.0 | 6.0 | 0.00 | 0.00 | 0.00 | 45 | 1004.6 |
| 20260901213006 | 79 | 25 | 1.0 | 6.0 | 0.00 | 0.00 | 0.00 | 36 | 1004.7 |
| 20260901211504 | 79 | 228 | 0.0 | 4.0 | 0.00 | 0.00 | 0.00 | 35 | 1004.9 |
| 20260901204552 | 76 | 68 | 1.0 | 3.0 | 0.00 | 0.00 | 0.00 | 41 | 1005.3 |
| 20260901203053 | 76 | 314 | 0.0 | 4.0 | 0.00 | 0.00 | 0.00 | 49 | 1005.5 |
| 20260901201546 | 76 | 338 | 0.0 | 2.0 | 0.00 | 0.00 | 0.00 | 53 | 1005.6 |
| 20260901200055 | 76 | 280 | 0.0 | 2.0 | 0.00 | 0.00 | 0.00 | 51 | 1005.7 |
| 20260901194559 | 75 | 277 | 0.0 | 1.0 | 0.00 | 0.00 | 0.00 | 47 | 1005.9 |
| 20260901193039 | 75 | 276 | 0.0 | 3.0 | 0.00 | 0.00 | 0.00 | 49 | 1006.1 |
| 20260901191535 | 74 | 276 | 1.0 | 3.0 | 0.00 | 0.00 | 0.00 | 46 | 1006.3 |
| 20260901190034 | 72 | 104 | 1.0 | 3.0 | 0.00 | 0.00 | 0.00 | 47 | 1006.6 |
| 20260901184526 | 71 | 86 | 0.0 | 3.0 | 0.00 | 0.00 | 0.00 | 50 | 1006.9 |
| 20260901183036 | 69 | 43 | 0.0 | 3.0 | 0.00 | 0.00 | 0.00 | 52 | 1007.3 |
| 20260901181518 | 68 | 106 | 0.0 | 2.0 | 0.00 | 0.00 | 0.00 | 53 | 1007.4 |
| 20260901180013 | 67 | 93 | 0.0 | 2.0 | 0.00 | 0.00 | 0.00 | 56 | 1007.6 |
| 20260901174511 | 64 | 79 | 0.0 | 1.0 | 0.00 | 0.00 | 0.00 | 62 | 1007.9 |
| 20260901173005 | 63 | 44 | 0.0 | 1.0 | 0.00 | 0.00 | 0.00 | 62 | 1008.0 |
| 20260901171620 | 61 | 343 | 0.0 | 4.0 | 0.00 | 0.00 | 0.00 | 67 | 1008.2 |
| 20260901164607 | 56 | 218 | 0.0 | 0.0 | 0.00 | 0.00 | 0.00 | 78 | 1008.6 |
| 20260901163047 | 53 | 218 | 0.0 | 0.0 | 0.00 | 0.00 | 0.00 | 86 | 1008.8 |
| 20260901161543 | 52 | 218 | 0.0 | 0.0 | 0.00 | 0.00 | 0.00 | 86 | 1009.0 |
| 20260901160045 | 50 | 218 | 0.0 | 0.0 | 0.00 | 0.00 | 0.00 | 86 | 1009.3 |
| 20260901154542 | 49 | 218 | 0.0 | 0.0 | 0.00 | 0.00 | 0.00 | 87 | 1009.4 |
| 20260901153041 | 48 | 218 | 0.0 | 0.0 | 0.00 | 0.00 | 0.00 | 88 | 1009.5 |
| 20260901151538 | 47 | 218 | 0.0 | 0.0 | 0.00 | 0.00 | 0.00 | 89 | 1009.5 |
| 20260901150038 | 46 | 218 | 0.0 | 0.0 | 0.00 | 0.00 | 0.00 | 90 | 1009.6 |
| 20260901144539 | 46 | 218 | 0.0 | 0.0 | 0.00 | 0.00 | 0.00 | 90 | 1009.7 |
| 20260901143041 | 45 | 218 | 0.0 | 0.0 | 0.00 | 0.00 | 0.00 | 90 | 1009.7 |
| 20260901141550 | 44 | 218 | 0.0 | 0.0 | 0.00 | 0.00 | 0.00 | 90 | 1009.8 |
| 20260901140036 | 44 | 218 | 0.0 | 0.0 | 0.00 | 0.00 | 0.00 | 90 | 1009.7 |
| 20260901134536 | 43 | 218 | 0.0 | 0.0 | 0.00 | 0.00 | 0.00 | 90 | 1009.5 |
| 20260901133039 | 43 | 218 | 0.0 | 0.0 | 0.00 | 0.00 | 0.00 | 89 | 1009.4 |
| 20260901131534 | 43 | 218 | 0.0 | 0.0 | 0.00 | 0.00 | 0.00 | 89 | 1009.5 |
| 20260901130030 | 44 | 218 | 0.0 | 0.0 | 0.00 | 0.00 | 0.00 | 89 | 1009.4 |
| 20260901124528 | 44 | 218 | 0.0 | 0.0 | 0.00 | 0.00 | 0.00 | 89 | 1009.4 |
| 20260901123026 | 44 | 218 | 0.0 | 0.0 | 0.00 | 0.00 | 0.00 | 88 | 1009.5 |
| 20260901121524 | 44 | 218 | 0.0 | 0.0 | 0.00 | 0.00 | 0.00 | 88 | 1009.6 |
| 20260901120022 | 45 | 218 | 0.0 | 0.0 | 0.00 | 0.00 | 0.00 | 88 | 1009.6 |
| 20260901114520 | 45 | 218 | 0.0 | 0.0 | 0.00 | 0.00 | 0.00 | 88 | 1009.7 |
| 20260901113020 | 45 | 218 | 0.0 | 0.0 | 0.00 | 0.00 | 0.00 | 88 | 1009.7 |
| 20260901111517 | 45 | 218 | 0.0 | 0.0 | 0.00 | 0.00 | 0.00 | 88 | 1009.7 |
| 20260901110032 | 46 | 218 | 0.0 | 0.0 | 0.00 | 0.00 | 0.00 | 88 | 1009.7 |
| 20260901104513 | 46 | 218 | 0.0 | 0.0 | 0.00 | 0.00 | 0.00 | 87 | 1009.8 |
| 20260901103011 | 46 | 218 | 0.0 | 0.0 | 0.00 | 0.00 | 0.00 | 87 | 1009.9 |